Starlink 30119

operational
NORAD ID: 56823 Int'l Des: 2023-079 Owner: SPXS Country: US Constellation: starlink
LEOCIRCULAR

关于 Starlink 30119

正在加载描述...

实时位置

正在加载3D地球...

即将过境

高度历史

Altitude vs Time

uPlot chart will show altitude changes over time

两行轨道根数

1 56823U 23079A 25305.65937219 -.00001964 00000-0 -13041-3 0 9996
2 56823 43.0048 83.1957 0001766 264.2731 95.7910 15.02517259134054
Epoch: Nov 1, 2025 • Age: 33 hours

当前状态

高度 566.3 km
速度 7.58 km/s
星下点 -30.12°S, 21.93°W
发射日期 Jun 4, 2023
运行时间 2.4 years
类型 internet

技术详情

分类 Payload
质量 730.00 kg
干质量 700.00 kg
总质量 730.00 kg
长度 0.30 m
直径 4.10 m
跨度 29.00 m
形状 Box + pan
制造商 SPXS
平台类型 Starlink V2M
阶段状态 In Orbit
所有者/国家 SPXS/US

大型星座

Loading constellations...